Temperature
22 21 21 21 21 21 21 21 21 22 21 22 22 21 20 19 18 17 17 16 16 15 15 15 15 15 15 15 15 14 14 14 14 14 14 14 13 13 13 13 13 12 12 12
21 21 20 20 21 21 20 21 21 21 21 22 21 20 19 19 18 17 17 16 16 16 15 15 15 15 15 15 14 14 14 14 14 14 14 13 13 13 13 13 13 12 12 12
21 21 20 20 21 21 20 21 21 21 21 21 20 19 19 18 17 17 16 16 16 16 15 15 15 15 14 14 14 14 14 14 14 13 13 13 13 13 13 13 13 12 12 12
20 20 19 21 20 20 20 20 20 20 20 20 19 18 17 17 17 16 16 16 16 16 15 15 15 15 14 14 14 14 14 13 13 13 13 13 13 13 13 12 12 12 12 12
20 20 20 20 20 19 19 20 20 20 19 18 17 18 18 16 16 16 15 15 15 15 15 15 15 14 14 14 14 13 13 13 13 13 13 13 13 13 12 12 12 12 12 11
19 19 19 20 19 18 19 20 19 19 19 18 18 19 19 16 15 15 15 15 15 15 15 14 14 14 14 13 13 13 13 13 13 12 12 12 12 12 12 12 12 12 11 11
19 19 20 19 18 18 19 20 18 18 17 17 17 18 16 15 15 14 14 14 14 14 14 14 14 14 13 13 13 13 13 12 12 12 12 12 12 12 12 12 12 11 11 11
19 18 19 17 17 18 19 18 17 17 17 16 16 15 15 14 14 14 14 14 14 14 14 14 14 13 13 13 13 12 12 12 12 12 12 12 11 11 11 11 11 11 11 11
19 18 17 16 16 16 16 17 16 16 15 15 15 14 14 14 14 14 13 13 13 13 13 13 13 13 13 13 12 12 12 12 12 11 11 11 11 11 11 11 11 11 10 10
17 17 16 15 15 15 15 15 15 14 14 14 14 14 13 13 13 13 13 13 13 13 13 13 13 13 12 12 12 11 11 11 11 11 11 11 10 10 10 10 10 10 10 10
16 17 16 15 14 14 14 14 14 13 13 13 13 13 13 13 13 13 13 13 13 12 12 12 12 12 12 11 11 11 11 11 10 10 10 10 10 10 10 10 10 10 10 10
16 16 16 15 14 13 13 13 13 13 13 13 13 12 12 12 12 12 12 12 12 12 12 12 11 11 11 11 11 11 10 10 10 10 10 10 10 10 10 10 10 10 10 9
14 14 14 13 13 13 13 12 12 12 12 12 12 12 12 12 12 12 11 11 11 11 11 11 11 11 11 11 10 10 10 10 10 10 9 9 9 9 9 9 9 9 9 9
12 12 12 12 12 12 12 12 12 12 12 12 12 12 12 11 11 11 11 11 11 11 11 11 11 11 11 10 10 10 10 10 10 9 9 9 9 9 9 9 9 9 9 9
11 11 12 11 11 11 11 11 11 11 11 11 11 11 11 11 11 11 11 10 10 10 10 10 10 10 10 10 10 9 9 9 9 9 9 8 8 8 8 8 8 8 8 8
11 11 11 11 11 11 11 11 11 11 11 11 11 11 10 10 10 10 10 10 10 10 10 10 10 10 10 10 9 9 9 9 9 9 8 8 8 8 8 7 7 7 7 7
10 10 10 10 10 10 10 10 10 10 10 10 10 10 10 10 10 10 10 10 9 9 10 9 9 9 9 9 9 9 9 9 9 8 8 8 7 7 7 7 7 7 7 7
10 10 10 10 9 9 9 9 9 9 9 9 9 9 9 9 9 9 9 9 9 9 9 9 9 9 9 8 8 8 8 8 8 8 8 7 7 7 7 7 7 6 6 6
9 9 9 9 9 9 9 9 9 9 9 9 9 9 9 9 9 9 8 8 8 8 9 8 8 8 8 8 8 8 8 8 7 7 7 7 7 6 6 6 6 6 6 6
9 9 8 8 8 8 8 8 8 8 8 8 8 8 8 8 8 8 8 8 8 8 8 8 8 8 8 7 7 7 7 7 7 7 7 6 6 6 6 6 6 6 5 5
8 8 8 8 8 8 8 7 7 7 7 7 7 7 7 7 7 7 7 7 7 7 7 7 7 7 7 7 7 7 7 7 7 6 6 6 6 6 5 5 5 5 5 5
7 7 7 7 7 7 7 7 7 7 7 7 7 6 6 6 6 6 7 7 7 7 7 7 7 7 7 7 6 6 6 6 6 6 6 5 5 5 5 5 5 5 5 5
6 6 6 6 6 6 6 6 6 6 6 6 6 6 6 6 6 6 6 6 6 6 6 6 6 6 6 6 6 6 6 6 6 5 5 5 5 5 5 5 5 5 5 4
6 6 6 6 6 6 5 5 5 5 6 5 5 5 5 5 5 5 6 6 6 6 6 6 6 6 6 6 6 5 5 5 5 5 5 5 5 4 4 4 4 4 4 4
5 5 5 5 5 5 5 5 5 5 5 5 5 5 5 5 5 5 5 5 5 5 5 5 5 5 5 5 5 5 5 5 5 4 4 4 4 4 4 4 4 4 4 4
5 5 5 4 4 4 4 4 4 4 4 4 4 4 4 4 4 4 4 5 4 4 4 5 5 4 4 4 4 4 4 4 4 4 4 4 4 4 4 4 4 3 3 3
4 4 4 4 4 4 4 4 4 4 4 4 4 4 4 4 4 4 4 4 4 4 4 4 4 4 4 4 4 4 3 3 3 3 3 3 3 3 3 3 3 3 3 3
Wind_Speed
6 5 5 6 8 8 10 10 9 8 8 8 6 5 3 2 2 2 3 3 3 3 4 4 5 5 5 5 5 5 5 5 5 4 4 5 5 5 5 5 5 4 4 4
7 5 6 9 9 10 10 10 11 11 10 6 4 3 3 2 3 3 3 3 3 4 4 4 5 5 5 5 5 5 5 5 4 4 4 4 5 5 5 5 5 5 5 5
7 5 6 9 7 8 8 8 8 9 7 3 4 3 3 2 3 3 3 4 4 4 4 4 4 5 5 5 5 5 5 5 5 5 5 5 5 5 5 5 5 5 6 6
6 6 8 2 1 3 6 6 6 7 5 4 4 3 2 2 2 2 2 3 4 4 4 4 4 4 4 5 5 5 5 5 5 6 6 5 5 5 6 5 5 6 6 7
6 7 8 4 3 3 5 6 5 6 5 3 2 2 2 1 2 3 3 3 3 4 4 4 4 4 5 5 5 5 5 5 5 6 6 6 6 6 6 6 6 6 7 7
7 7 7 2 1 1 4 6 0 2 3 2 3 5 2 2 2 3 3 3 3 3 3 4 4 4 5 5 5 6 6 6 6 6 6 6 7 7 6 6 6 6 7 7
10 10 7 1 1 3 5 2 2 1 2 2 4 4 3 2 3 3 3 3 3 3 3 4 4 5 6 6 7 6 6 6 6 7 7 6 6 6 6 6 6 7 7 7
7 9 6 2 2 3 4 3 1 2 2 3 3 4 3 4 4 4 4 3 3 3 4 4 4 5 6 7 6 6 5 6 6 7 6 6 6 6 6 6 6 6 6 6
5 4 2 0 2 4 5 4 4 4 4 3 4 5 5 5 5 4 4 4 4 4 4 4 5 6 7 6 5 5 6 6 6 6 6 6 6 6 6 6 5 6 5 6
7 7 5 4 4 4 5 5 5 5 4 5 6 6 6 5 5 5 5 4 4 4 5 5 5 6 7 6 5 6 6 6 6 6 6 6 5 5 6 6 6 6 6 6
9 7 6 5 5 5 5 5 5 5 6 6 6 7 6 6 6 5 5 5 5 5 5 6 5 6 6 5 5 6 6 6 6 6 6 6 6 5 6 6 6 6 6 5
8 6 7 7 6 6 6 6 6 6 7 6 6 6 6 6 6 5 5 5 5 5 6 6 6 6 6 6 6 6 6 6 5 5 5 5 5 5 4 6 4 5 5 6
8 7 8 8 8 7 6 7 7 7 7 7 6 6 6 6 5 5 6 6 6 6 6 6 6 6 6 5 6 7 7 6 5 5 5 5 5 5 5 5 6 7 7 7
7 7 8 7 7 7 6 6 6 6 6 6 6 6 5 5 5 6 6 6 6 6 6 6 6 6 5 5 6 7 7 6 5 5 5 5 6 6 6 5 5 5 6 7
7 7 7 7 6 5 5 5 6 6 6 7 6 6 6 6 6 7 6 6 6 6 6 6 7 6 5 6 6 7 6 5 5 5 5 5 5 5 5 6 6 5 5 5
7 6 6 6 6 6 6 6 6 7 7 7 6 6 6 6 6 6 6 5 6 7 7 6 6 6 5 6 6 6 6 6 5 5 5 5 5 6 5 6 6 6 6 5
5 5 6 6 6 7 7 6 6 7 7 7 7 7 6 6 6 6 5 5 6 6 6 6 6 5 5 6 6 5 5 5 6 6 6 6 5 6 6 6 6 6 6 5
6 7 7 7 7 7 7 7 6 7 7 7 7 6 6 6 6 6 6 6 5 5 5 5 5 5 5 6 5 5 5 5 5 5 6 6 6 6 6 6 7 7 6 5
5 5 5 6 6 6 6 7 7 6 6 6 6 6 7 6 6 6 6 6 6 6 6 5 5 5 5 5 5 4 5 5 5 5 5 5 6 6 6 6 7 7 6 6
4 4 5 5 5 5 5 5 5 6 6 5 5 6 6 6 6 6 6 5 5 5 6 5 5 4 4 5 4 4 5 5 5 5 5 5 6 6 6 7 7 7 6 6
3 4 4 4 4 5 5 5 5 5 5 5 5 6 6 6 6 5 5 5 6 6 5 4 4 4 4 3 4 4 5 5 5 5 5 6 6 6 6 6 7 6 6 6
3 3 4 4 4 4 4 4 4 5 5 5 5 5 5 6 6 5 5 5 6 6 4 4 3 3 4 3 4 4 5 5 5 5 6 6 6 6 6 7 7 7 6 7
3 4 4 4 5 5 5 4 4 4 5 5 5 5 5 5 5 5 5 5 5 6 4 4 4 4 4 4 4 4 5 5 5 6 6 6 6 6 6 7 7 7 7 6
4 4 4 4 4 5 5 5 5 4 5 5 5 5 5 5 5 5 5 6 6 6 4 4 4 4 4 3 4 4 5 5 5 6 6 6 6 6 6 7 7 6 6 7
4 4 5 5 5 4 5 5 5 5 5 4 5 5 5 4 5 5 5 5 5 5 4 4 4 4 4 4 4 4 4 4 5 5 6 6 6 6 6 6 6 6 6 6
4 4 4 5 5 5 5 4 4 4 5 5 5 4 4 4 5 5 4 5 5 5 4 4 4 3 3 4 4 4 4 4 4 4 5 5 6 6 6 6 7 6 6 6
4 4 4 4 4 5 5 5 5 5 5 5 5 5 5 5 5 5 5 4 4 4 4 4 4 3 3 3 3 4 4 4 4 4 4 5 5 5 6 6 6 6 6 6
Wind_Direction
272 284 271 265 254 236 238 251 262 270 275 282 292 294 288 253 226 216 204 193 192 196 199 198 198 197 194 193 191 190 189 195 204 204 204 207 205 205 206 207 212 210 213 212
257 256 259 263 260 246 243 249 253 263 272 284 291 281 261 234 219 221 214 207 203 201 200 204 203 202 198 198 197 194 196 200 201 201 200 205 206 205 206 206 214 215 220 221
261 258 266 259 253 240 233 235 247 257 271 283 284 282 266 250 233 234 235 228 219 212 207 211 211 207 204 203 196 198 203 204 201 201 200 206 203 204 209 210 212 217 223 225
265 259 254 268 89 240 240 251 249 259 280 289 293 297 278 255 247 253 257 249 238 229 216 215 211 205 204 202 201 205 211 212 206 205 205 206 207 210 215 219 215 221 226 228
250 259 266 260 234 230 244 257 253 255 266 276 286 258 233 247 271 278 274 267 251 238 223 212 208 203 200 203 206 211 219 222 214 211 210 212 216 219 222 223 224 226 229 232
241 255 263 272 130 229 254 253 266 264 265 259 241 261 283 343 312 300 293 277 259 239 227 221 214 205 205 212 216 223 227 232 226 219 215 218 225 227 224 225 230 232 234 237
244 253 262 317 127 199 237 300 58 313 283 244 256 300 336 326 310 301 289 279 262 242 232 228 219 210 216 222 227 232 232 236 232 224 223 224 230 231 229 230 233 236 238 239
239 246 253 90 170 228 303 351 309 301 291 277 292 312 310 300 297 295 286 275 260 246 242 235 223 219 228 235 237 234 229 232 231 227 225 225 227 234 235 231 232 237 239 239
236 256 353 171 267 307 320 304 303 301 301 294 291 293 294 291 292 293 287 275 261 251 248 241 230 227 233 239 239 234 229 233 234 230 224 227 227 229 231 230 232 238 239 241
250 255 262 260 269 289 302 303 311 310 305 292 286 286 286 287 288 288 282 276 265 254 251 249 240 237 239 238 235 233 232 235 233 227 226 228 229 230 228 229 230 234 237 241
252 262 266 255 267 285 293 297 301 304 300 294 288 282 280 280 281 282 279 275 268 261 260 258 249 242 242 234 227 233 236 238 235 228 229 230 230 234 233 235 238 239 240 243
258 263 268 274 285 291 289 287 287 293 297 296 291 287 283 280 279 278 275 272 269 266 261 258 250 242 237 229 225 231 236 238 234 231 227 230 235 239 232 237 236 240 253 255
274 288 282 284 288 288 287 291 291 291 291 291 293 290 285 281 277 275 272 266 263 263 263 259 253 247 242 234 229 231 236 238 231 232 232 232 234 237 242 236 228 233 238 246
271 275 275 277 284 291 295 297 298 299 297 293 293 290 285 280 278 274 272 269 267 266 263 258 253 249 245 236 231 233 238 236 231 230 233 234 236 239 242 246 249 250 238 233
268 269 273 282 283 292 300 300 300 301 301 300 296 288 282 279 277 277 277 276 272 268 266 262 256 252 246 235 232 235 238 235 232 233 234 236 237 241 245 248 251 254 258 246
272 272 268 273 281 289 293 295 295 298 301 300 297 292 286 282 282 281 278 274 269 269 269 265 261 259 248 235 230 236 236 229 229 234 236 237 238 240 243 248 253 256 257 259
260 268 272 277 284 287 286 287 289 294 298 298 297 296 292 287 284 283 282 278 273 271 271 267 266 263 249 241 234 233 234 226 220 232 237 239 241 243 245 247 252 256 258 256
264 269 274 277 282 285 290 293 294 295 294 296 298 295 288 283 282 283 285 284 279 280 279 275 271 263 252 241 236 234 232 232 232 235 238 239 242 244 246 249 252 256 260 250
271 276 280 282 284 285 290 293 295 298 301 301 297 292 288 286 287 288 288 284 281 283 288 288 277 259 247 239 235 230 231 234 237 239 240 238 241 244 245 249 253 256 257 255
287 285 286 290 294 293 294 298 300 302 304 302 298 297 297 298 298 295 292 288 286 288 291 290 276 260 250 242 233 232 229 231 237 242 241 241 244 247 248 249 252 255 255 254
307 298 298 299 301 301 300 300 300 302 305 304 300 298 300 304 305 302 299 296 300 303 295 281 267 259 250 248 236 233 234 237 240 243 244 244 246 250 252 254 254 254 255 255
316 312 310 311 311 310 310 307 305 306 308 309 306 305 307 308 308 305 297 293 302 314 303 284 273 269 271 255 242 243 242 243 244 245 246 248 248 250 253 255 256 256 255 254
313 314 318 320 316 313 313 311 309 308 307 305 304 304 303 303 302 300 300 305 307 310 304 294 297 289 276 255 254 252 250 249 249 249 249 249 249 251 254 256 257 258 257 256
316 319 321 320 318 315 313 315 313 309 304 303 303 303 303 303 304 302 299 305 312 307 297 297 299 292 277 266 259 254 251 251 252 254 254 254 253 252 252 254 257 258 257 259
309 312 314 315 312 310 309 311 312 309 306 305 304 304 303 298 297 301 303 304 311 308 300 300 292 287 279 275 267 263 261 258 259 260 258 256 255 254 255 255 255 257 260 258
301 301 302 303 307 306 304 301 300 301 303 303 302 303 304 305 302 301 302 302 301 302 300 297 288 278 280 284 279 275 273 269 266 262 260 259 256 255 255 254 255 255 258 259
298 300 304 308 310 306 301 297 296 296 295 296 299 302 304 305 303 302 301 299 297 293 292 290 286 282 286 289 287 286 282 278 273 269 268 265 261 258 256 255 255 256 258 259
Height
1521 1522 1524 1524 1523 1524 1524 1522 1522 1519 1519 1517 1517 1520 1522 1523 1524 1525 1525 1526 1527 1527 1528 1529 1529 1530 1531 1532 1533 1534 1535 1536 1537 1538 1538 1539 1539 1540 1540 1541 1542 1543 1543 1544
1522 1522 1523 1524 1521 1521 1521 1520 1519 1518 1518 1515 1518 1519 1520 1521 1522 1523 1523 1524 1525 1525 1526 1526 1527 1528 1529 1529 1530 1531 1532 1533 1534 1535 1535 1536 1536 1537 1537 1538 1539 1539 1540 1541
1521 1520 1522 1521 1516 1516 1517 1516 1516 1516 1515 1515 1517 1518 1519 1520 1520 1521 1522 1522 1522 1523 1523 1524 1525 1525 1526 1527 1528 1529 1530 1530 1531 1532 1532 1533 1533 1534 1534 1535 1536 1536 1537 1537
1520 1522 1528 1515 1514 1515 1515 1515 1514 1514 1514 1516 1517 1518 1518 1519 1519 1519 1520 1520 1520 1521 1521 1521 1522 1523 1524 1524 1525 1526 1527 1528 1528 1529 1529 1530 1530 1531 1531 1532 1532 1532 1533 1534
1521 1521 1516 1514 1514 1515 1515 1513 1513 1513 1514 1516 1517 1516 1516 1517 1517 1518 1518 1518 1518 1518 1519 1519 1520 1520 1521 1522 1522 1523 1524 1524 1525 1525 1526 1526 1527 1527 1528 1528 1528 1529 1529 1530
1520 1523 1520 1512 1513 1515 1515 1512 1511 1512 1513 1514 1515 1512 1512 1515 1515 1515 1515 1515 1516 1516 1516 1516 1517 1517 1518 1518 1519 1519 1520 1521 1521 1522 1522 1522 1523 1524 1524 1524 1525 1525 1525 1525
1517 1517 1510 1511 1514 1515 1517 1511 1512 1512 1513 1513 1513 1513 1514 1513 1513 1513 1513 1512 1512 1513 1513 1513 1514 1514 1514 1514 1515 1516 1516 1517 1517 1518 1518 1518 1519 1520 1520 1520 1520 1521 1521 1521
1515 1517 1515 1513 1513 1513 1511 1511 1512 1512 1513 1513 1513 1512 1512 1512 1511 1511 1510 1510 1509 1509 1509 1510 1510 1510 1510 1510 1511 1512 1512 1512 1513 1513 1514 1514 1515 1515 1516 1516 1516 1516 1516 1516
1511 1512 1512 1514 1514 1514 1513 1512 1512 1511 1511 1511 1511 1510 1510 1509 1509 1508 1507 1507 1506 1506 1506 1506 1506 1506 1506 1506 1507 1507 1507 1507 1508 1509 1509 1509 1510 1510 1510 1511 1511 1511 1511 1511
1511 1509 1511 1513 1513 1512 1512 1512 1511 1510 1510 1509 1508 1507 1506 1506 1505 1505 1504 1504 1503 1502 1502 1501 1501 1501 1501 1502 1502 1502 1502 1503 1503 1504 1504 1504 1505 1505 1505 1505 1505 1506 1506 1506
1508 1509 1510 1510 1510 1510 1510 1509 1509 1508 1507 1506 1505 1504 1503 1502 1502 1501 1501 1500 1500 1499 1497 1497 1496 1496 1497 1497 1497 1498 1498 1498 1499 1499 1499 1499 1500 1500 1500 1500 1500 1501 1500 1500
1506 1507 1507 1507 1508 1507 1507 1506 1506 1505 1504 1503 1502 1501 1499 1498 1498 1497 1496 1496 1495 1494 1493 1493 1492 1492 1492 1492 1493 1493 1494 1494 1494 1494 1494 1495 1495 1495 1494 1495 1494 1495 1495 1495
1506 1506 1506 1505 1505 1504 1504 1503 1502 1501 1500 1499 1498 1497 1496 1495 1494 1493 1492 1491 1491 1490 1489 1489 1488 1488 1488 1488 1488 1489 1489 1489 1489 1490 1490 1490 1490 1489 1489 1489 1489 1489 1489 1489
1504 1504 1503 1503 1502 1501 1501 1499 1498 1497 1496 1495 1494 1493 1492 1491 1490 1489 1488 1487 1486 1485 1485 1484 1484 1483 1483 1483 1484 1484 1484 1484 1485 1485 1485 1485 1485 1484 1484 1484 1483 1483 1483 1483
1501 1501 1501 1500 1499 1498 1497 1496 1495 1494 1493 1492 1491 1489 1488 1487 1486 1485 1484 1483 1482 1481 1480 1479 1479 1478 1478 1478 1479 1479 1479 1480 1480 1480 1480 1480 1480 1479 1479 1479 1478 1477 1477 1477
1497 1497 1497 1496 1495 1495 1494 1493 1492 1490 1489 1488 1487 1485 1484 1483 1482 1480 1479 1478 1477 1476 1475 1474 1474 1473 1473 1473 1473 1474 1474 1475 1475 1475 1475 1475 1475 1474 1474 1473 1473 1472 1471 1471
1494 1493 1493 1493 1492 1491 1490 1490 1488 1487 1486 1484 1483 1481 1480 1479 1477 1476 1475 1474 1473 1471 1470 1470 1469 1468 1468 1468 1468 1468 1469 1469 1470 1470 1470 1470 1470 1469 1469 1468 1467 1467 1466 1466
1490 1490 1490 1489 1488 1487 1486 1485 1484 1483 1482 1480 1479 1477 1476 1474 1473 1471 1470 1469 1468 1467 1466 1465 1464 1463 1463 1463 1463 1464 1464 1464 1464 1464 1464 1464 1464 1464 1463 1463 1462 1461 1461 1461
1486 1486 1486 1485 1485 1484 1483 1481 1480 1479 1478 1476 1475 1474 1472 1470 1469 1467 1466 1465 1463 1462 1461 1461 1459 1458 1458 1458 1458 1459 1459 1459 1459 1459 1459 1459 1459 1458 1458 1457 1457 1456 1456 1455
1482 1482 1482 1481 1481 1480 1479 1477 1476 1475 1474 1472 1471 1469 1468 1467 1465 1463 1462 1461 1459 1458 1457 1456 1455 1454 1454 1454 1454 1454 1454 1454 1454 1454 1454 1453 1453 1453 1452 1452 1452 1451 1451 1450
1479 1479 1478 1478 1477 1476 1475 1474 1473 1471 1470 1469 1467 1466 1464 1463 1461 1460 1458 1456 1455 1454 1453 1451 1451 1450 1450 1450 1450 1450 1450 1450 1450 1449 1449 1448 1448 1448 1447 1446 1446 1445 1445 1444
1477 1476 1475 1474 1473 1472 1472 1470 1469 1468 1466 1465 1464 1462 1460 1459 1457 1456 1455 1453 1451 1450 1449 1448 1447 1447 1446 1446 1446 1445 1445 1445 1445 1444 1444 1443 1443 1442 1442 1441 1441 1440 1439 1439
1475 1474 1473 1472 1471 1469 1468 1467 1466 1464 1463 1462 1460 1459 1457 1456 1454 1452 1450 1449 1448 1446 1445 1444 1443 1443 1442 1441 1441 1440 1440 1440 1440 1439 1439 1438 1437 1437 1436 1436 1435 1435 1434 1433
1472 1471 1470 1469 1468 1467 1465 1464 1463 1461 1460 1459 1457 1456 1454 1452 1450 1449 1447 1445 1444 1442 1441 1440 1440 1439 1438 1437 1436 1435 1435 1434 1434 1433 1433 1432 1432 1431 1431 1430 1430 1429 1428 1427
1469 1468 1467 1466 1465 1464 1463 1461 1460 1458 1457 1455 1454 1452 1451 1449 1447 1445 1444 1442 1440 1439 1437 1436 1435 1434 1433 1432 1431 1431 1430 1429 1428 1428 1427 1427 1426 1425 1425 1424 1424 1423 1423 1422
1466 1465 1464 1464 1463 1461 1460 1458 1457 1455 1453 1452 1450 1448 1447 1445 1443 1441 1440 1438 1436 1435 1433 1432 1431 1430 1429 1428 1427 1426 1425 1424 1423 1422 1422 1421 1421 1420 1420 1419 1418 1418 1417 1416
1463 1462 1461 1460 1459 1458 1456 1455 1453 1452 1450 1448 1446 1445 1443 1441 1439 1437 1436 1434 1432 1431 1430 1428 1427 1426 1425 1424 1423 1422 1421 1420 1419 1418 1417 1417 1416 1415 1414 1414 1413 1412 1411 1411